Pawtucket, RI

12:37 PM EDT on April 26, 2018 (GMT -0400)
North Central State

Weather History for KSFZ - November, 2013

Change the Weather History Date:

Friday, November 1, 2013

  Actual Average Record
Temperature  
Mean Temperature 62 °F -  
Max Temperature 68 °F 53 °F 75 °F (2003)
Min Temperature 57 °F 36 °F 28 °F (2016)
Degree Days  
Heating Degree Days 2    
Growing Degree Days 12 (Base 50)    
Moisture  
Dew Point 55 °F    
Average Humidity 77    
Maximum Humidity 88    
Minimum Humidity 64    
Precipitation  
Precipitation 0.09 in - - ()
Sea Level Pressure  
Sea Level Pressure 29.64 in    
Wind  
Wind Speed 10 mph (SW)    
Max Wind Speed 20 mph    
Max Gust Speed 37 mph    
Visibility 10 miles    
Events      
Averages and records for this station are not official NWS values.
T = Trace of Precipitation, MM = Missing Value Source: NWS Daily Summary

Daily Weather History Graph

Daily Weather History Graph

Search for Another Location

Airport or City:

Astronomy

Nov. 01, 2013 Rise Set
Actual Time 7:18 AM EDT 5:39 PM EDT
Civil Twilight 6:49 AM EDT 6:08 PM EDT
Nautical Twilight 6:16 AM EDT 6:41 PM EDT
Astronomical Twilight 5:44 AM EDT 7:14 PM EDT
Moon 5:06 AM EDT (11/1) 4:32 PM EDT (11/1)
Length of Visible Light 11h 19m
Length of Day
10h 21m
Waning Crescent, 4% of the Moon is Illuminated
Nov 1
Waning Crescent
Nov 3
New
Nov 10
First Quarter
Nov 17
Full
Nov 25
Last Quarter

Hourly Weather History & Observations

Time (EDT) Temp. Dew Point Humidity Pressure Visibility Wind Dir Wind Speed Gust Speed Precip Events Conditions
12:15 AM 60.8 °F 57.2 °F 88% 29.82 in 9.0 mi South 5.8 mph - 0.03 in   Overcast
12:35 AM 60.8 °F 57.2 °F 88% 29.81 in 7.0 mi South 8.1 mph - 0.03 in   Overcast
12:55 AM 62.6 °F 57.2 °F 82% 29.80 in 10.0 mi SSW 11.5 mph 18.4 mph 0.03 in   Overcast
1:15 AM 62.6 °F 59.0 °F 88% 29.80 in 10.0 mi SSW 11.5 mph 21.9 mph N/A   Overcast
1:35 AM 62.6 °F 57.2 °F 82% 29.80 in 10.0 mi SW 10.4 mph 26.5 mph N/A   Overcast
1:55 AM 62.6 °F 57.2 °F 82% 29.79 in 10.0 mi SW 9.2 mph 20.7 mph N/A   Overcast
2:15 AM 62.6 °F 57.2 °F 82% 29.77 in 10.0 mi SSW 6.9 mph 19.6 mph N/A   Mostly Cloudy
2:35 AM 60.8 °F 57.2 °F 88% 29.76 in 10.0 mi SSW 6.9 mph 16.1 mph N/A   Overcast
2:55 AM 60.8 °F 57.2 °F 88% 29.75 in 10.0 mi SW 6.9 mph - N/A   Overcast
3:15 AM 62.6 °F 57.2 °F 82% 29.74 in 10.0 mi SSW 10.4 mph 18.4 mph N/A   Overcast
3:35 AM 62.6 °F 57.2 °F 82% 29.73 in 10.0 mi SSW 11.5 mph 18.4 mph N/A   Overcast
3:55 AM 62.6 °F 57.2 °F 82% 29.71 in 10.0 mi SSW 10.4 mph 20.7 mph N/A   Mostly Cloudy
4:15 AM 62.6 °F 57.2 °F 82% 29.71 in 10.0 mi SSW 9.2 mph 21.9 mph N/A   Scattered Clouds
4:35 AM 62.6 °F 57.2 °F 82% 29.70 in 10.0 mi SSW 9.2 mph 18.4 mph N/A   Mostly Cloudy
4:55 AM 62.6 °F 57.2 °F 82% 29.69 in 10.0 mi SSW 12.7 mph 24.2 mph N/A   Mostly Cloudy
5:15 AM 62.6 °F 57.2 °F 82% 29.69 in 10.0 mi SSW 12.7 mph 25.3 mph N/A   Partly Cloudy
5:35 AM 62.6 °F 55.4 °F 77% 29.68 in 10.0 mi SW 12.7 mph 26.5 mph N/A   Scattered Clouds
5:55 AM 64.4 °F 55.4 °F 73% 29.67 in 10.0 mi SW 17.3 mph 32.2 mph N/A   Scattered Clouds
6:15 AM 64.4 °F 57.2 °F 77% 29.66 in 10.0 mi SSW 15.0 mph 26.5 mph N/A   Partly Cloudy
6:35 AM 64.4 °F 57.2 °F 77% 29.66 in 10.0 mi SSW 13.8 mph 26.5 mph N/A   Mostly Cloudy
6:55 AM 64.4 °F 57.2 °F 77% 29.64 in 10.0 mi SSW 12.7 mph 27.6 mph N/A   Overcast
7:15 AM 66.2 °F 57.2 °F 73% 29.64 in 10.0 mi SW 10.4 mph 24.2 mph N/A   Overcast
7:35 AM 66.2 °F 59.0 °F 78% 29.63 in 10.0 mi SSW 9.2 mph 26.5 mph N/A   Overcast
7:55 AM 66.2 °F 59.0 °F 78% 29.64 in 10.0 mi SSW 15.0 mph 27.6 mph N/A   Overcast
8:15 AM 66.2 °F 57.2 °F 73% 29.64 in 10.0 mi SSW 15.0 mph 29.9 mph N/A   Overcast
8:35 AM 66.2 °F 57.2 °F 73% 29.65 in 10.0 mi SW 9.2 mph 29.9 mph N/A   Mostly Cloudy
8:55 AM 66.2 °F 57.2 °F 73% 29.63 in 10.0 mi SSW 8.1 mph 31.1 mph N/A   Mostly Cloudy
9:15 AM 66.2 °F 59.0 °F 78% 29.63 in 10.0 mi SSW 10.4 mph 31.1 mph N/A   Overcast
9:35 AM 66.2 °F 57.2 °F 73% 29.63 in 10.0 mi SSW 12.7 mph 29.9 mph N/A   Overcast
9:55 AM 66.2 °F 59.0 °F 78% 29.62 in 10.0 mi SSW 12.7 mph 31.1 mph N/A   Overcast
10:15 AM 64.4 °F 59.0 °F 83% 29.60 in 5.0 mi SSW 12.7 mph 28.8 mph N/A   Overcast
10:35 AM 66.2 °F 60.8 °F 83% 29.59 in 10.0 mi SSW 17.3 mph 31.1 mph 0.01 in   Overcast
10:55 AM 66.2 °F 60.8 °F 83% 29.57 in 10.0 mi SW 17.3 mph 26.5 mph 0.01 in   Overcast
11:15 AM 66.2 °F 59.0 °F 78% 29.57 in 10.0 mi SSW 13.8 mph 27.6 mph N/A   Overcast
11:35 AM 66.2 °F 59.0 °F 78% 29.56 in 10.0 mi SSW 19.6 mph 36.8 mph N/A   Overcast
11:55 AM 68.0 °F 59.0 °F 73% 29.58 in 10.0 mi SW 11.5 mph 34.5 mph N/A   Overcast
12:15 PM 64.4 °F 59.0 °F 83% 29.59 in 3.0 mi SW 10.4 mph 19.6 mph N/A   Overcast
12:35 PM 60.8 °F 53.6 °F 77% 29.60 in 8.0 mi WSW 12.7 mph 26.5 mph 0.05 in   Overcast
12:55 PM 60.8 °F 53.6 °F 77% 29.59 in 10.0 mi WSW 8.1 mph 19.6 mph 0.05 in   Overcast
1:15 PM 60.8 °F 53.6 °F 77% 29.58 in 10.0 mi SW 8.1 mph - N/A   Overcast
1:35 PM 62.6 °F 55.4 °F 77% 29.56 in 10.0 mi SSW 10.4 mph 19.6 mph N/A   Overcast
1:55 PM 64.4 °F 55.4 °F 73% 29.54 in 10.0 mi SSW 10.4 mph 20.7 mph N/A   Overcast
2:15 PM 64.4 °F 55.4 °F 73% 29.53 in 10.0 mi SSW 8.1 mph 23.0 mph N/A   Overcast
2:35 PM 64.4 °F 53.6 °F 68% 29.53 in 10.0 mi SW 13.8 mph 24.2 mph N/A   Overcast
2:55 PM 64.4 °F 53.6 °F 68% 29.54 in 10.0 mi SSW 12.7 mph 25.3 mph N/A   Overcast
3:15 PM 64.4 °F 51.8 °F 64% 29.54 in 10.0 mi SW 13.8 mph 21.9 mph N/A   Overcast
3:35 PM 64.4 °F 51.8 °F 64% 29.54 in 10.0 mi SW 9.2 mph 16.1 mph N/A   Overcast
3:55 PM 64.4 °F 51.8 °F 64% 29.54 in 10.0 mi SW 9.2 mph 19.6 mph N/A   Overcast
4:15 PM 64.4 °F 51.8 °F 64% 29.54 in 10.0 mi SW 9.2 mph 17.3 mph N/A   Overcast
4:35 PM 62.6 °F 51.8 °F 68% 29.55 in 10.0 mi SW 9.2 mph 18.4 mph N/A   Overcast
4:55 PM 62.6 °F 51.8 °F 68% 29.56 in 10.0 mi SW 6.9 mph - N/A   Overcast
5:15 PM 62.6 °F 51.8 °F 68% 29.56 in 10.0 mi SSW 9.2 mph - N/A   Mostly Cloudy
5:35 PM 60.8 °F 51.8 °F 72% 29.56 in 10.0 mi SSW 10.4 mph - N/A   Scattered Clouds
5:55 PM 60.8 °F 51.8 °F 72% 29.56 in 10.0 mi SSW 6.9 mph - N/A   Clear
6:15 PM 60.8 °F 51.8 °F 72% 29.56 in 10.0 mi SSW 6.9 mph - N/A   Clear
6:35 PM 59.0 °F 51.8 °F 77% 29.58 in 10.0 mi SSW 8.1 mph 17.3 mph N/A   Clear
6:55 PM 59.0 °F 51.8 °F 77% 29.59 in 10.0 mi SSW 6.9 mph - N/A   Clear
7:15 PM 59.0 °F 51.8 °F 77% 29.60 in 10.0 mi SSW 8.1 mph 20.7 mph N/A   Clear
7:35 PM 59.0 °F 51.8 °F 77% 29.61 in 10.0 mi SSW 9.2 mph - N/A   Clear
7:55 PM 59.0 °F 51.8 °F 77% 29.63 in 10.0 mi SSW 8.1 mph - N/A   Clear
8:15 PM 59.0 °F 51.8 °F 77% 29.63 in 10.0 mi SSW 6.9 mph - N/A   Clear
8:35 PM 57.2 °F 51.8 °F 82% 29.62 in 10.0 mi SW 6.9 mph - N/A   Clear
8:55 PM 57.2 °F 51.8 °F 82% 29.64 in 10.0 mi SW 5.8 mph - N/A   Clear
9:15 PM 59.0 °F 51.8 °F 77% 29.64 in 10.0 mi SW 8.1 mph - N/A   Clear
9:35 PM 59.0 °F 51.8 °F 77% 29.65 in 10.0 mi SSW 8.1 mph 20.7 mph N/A   Clear
9:55 PM 59.0 °F 51.8 °F 77% 29.65 in 10.0 mi SW 6.9 mph - N/A   Clear
10:15 PM 57.2 °F 51.8 °F 82% 29.66 in 10.0 mi SSW 8.1 mph - N/A   Clear
10:35 PM 57.2 °F 51.8 °F 82% 29.66 in 10.0 mi SSW 6.9 mph - N/A   Clear
10:55 PM 57.2 °F 51.8 °F 82% 29.66 in 10.0 mi SW 5.8 mph - N/A   Clear
11:15 PM 57.2 °F 50.0 °F 77% 29.66 in 10.0 mi WSW 4.6 mph - N/A   Clear
11:35 PM 57.2 °F 50.0 °F 77% 29.67 in 10.0 mi WSW 6.9 mph - N/A   Clear
11:55 PM 57.2 °F 50.0 °F 77% 29.68 in 10.0 mi SW 6.9 mph - N/A   Clear